Regional Weather Roundup
Issued by NWS Green Bay, WI

Home | Current Version | Previous Version | Graphics & Text | Print | Product List | Glossary Off
Versions: 1 2 3 4 5 6 7 8 9 10 11 12 13 14 15 16 17 18 19 20 21 22 23 24 25 26 27 28 29 30 31 32 33 34 35 36 37 38 39 40 41 42 43 44 45 46 47 48 49 50

000
ASUS43 KGRB 201159
RWRGRB

NORTH-CENTRAL AND NORTHEAST WISCONSIN REGIONAL WEATHER ROUNDUP
NATIONAL WEATHER SERVICE GREEN BAY WI
700 AM CDT MON OCT 20 2014

WIZ005-009-010>012-018-019-201300-
NORTH CENTRAL WISCONSIN

CITY           SKY/WX    TMP DP  RH WIND       PRES   REMARKS
IRONWOOD       CLOUDY    46  43  87 CALM      29.84R
MANITOWISH WTR NOT AVBL
ARBOR VITAE    NOT AVBL
EAGLE RIVER    NOT AVBL
LAND O LAKES   NOT AVBL
RHINELANDER    CLOUDY    46  42  86 NW6       29.84R
PHILLIPS       NOT AVBL
ANTIGO         NOT AVBL
TOMAHAWK       NOT AVBL
MERRILL        NOT AVBL
$$

WIZ013-073-201300-
NORTHEAST WISCONSIN

CITY           SKY/WX    TMP DP  RH WIND       PRES   REMARKS
IRON MOUNTAIN  CLOUDY    46  42  86 NW7       29.80R
MARINETTE      CLOUDY    45  41  87 N8        29.78R
$$

WIZ017-030-035>037-045-201300-
CENTRAL WISCONSIN

CITY           SKY/WX    TMP DP  RH WIND       PRES   REMARKS
MEDFORD        NOT AVBL
WAUSAU         CLEAR     43  40  89 NW5       29.83R
MOSINEE        CLEAR     41  41 100 NW8       29.85R
MARSHFIELD     CLEAR     43  40  89 NW9       29.86R
WISC RAPIDS    CLEAR     45  41  86 NW6       29.87R
STEVENS POINT  NOT AVBL
WAUPACA        NOT AVBL
SHAWANO        NOT AVBL
CLINTONVILLE   NOT AVBL
$$

WIZ038-039-048-051-201300-
FOX VALLEY

CITY           SKY/WX    TMP DP  RH WIND       PRES   REMARKS
NWS GREEN BAY  CLOUDY    45  43  93 NW7       29.80R
APPLETON       PTCLDY    45  43  93 NW9       29.80R
OSHKOSH        CLOUDY    46  43  89 NW8       29.80R
FOND DU LAC    PTCLDY    42  39  89 CALM      29.80R
$$

WIZ022-050-052-201300-
EAST CENTRAL WISCONSIN

CITY           SKY/WX    TMP DP  RH WIND       PRES   REMARKS
STURGEON BAY   CLOUDY    48  45  87 N8        29.79R
MANITOWOC      NOT AVBL
SHEBOYGAN      CLEAR     46  42  86 NW6       29.78R
$$

LMZ563-521-522-541>543-201300-
LAKESHORE

STATION/POSITION TIME  TEMP    WIND        PRES    VSBY  WAVE
                       AIR SEA DIR/SP/G                  HT/PER
                 (UTC) (F)     (DEG/KT/KT) (MB)    (MI)  (FT/S)
SHEBOYGAN LKSHOR 1100   49 51  270/ 13/ 14 1008.1R
KEWAUNEE LKSHORE 1100   46     300/  5/  7 1007.1R
NORTHPORT PIER   1100   51     330/ 12/ 14 1008.1R
N MID LAKE BUOY  1100   52 52  340/ 10/ 10 1007.3R         4/ 7
CHAMBERS ISLAND  1100   51     330/ 11/ 13 1008.8R
MENOMINEE LKSHOR 1100   48     320/ 10/ 12 1009.1R
$$


USA.gov is the U.S. government's official web portal to all federal, state and local government web resources and services.